| time (UTC) | temp C | wind direction | speed KPH | gust KPH | rain 1hr cm | rain 24hr cm | rain mn cm | humidity % | barometer mb |
| 20260510174405 | 4 | 269 | 0.0 | 3.2 | 0.05 | 0.41 | 0.41 | 94 | 1017.2 |
| 20260510172854 | 4 | 283 | 0.0 | 6.4 | 0.05 | 0.41 | 0.41 | 94 | 1017.3 |
| 20260510165902 | 4 | 218 | 1.6 | 6.4 | 0.05 | 0.38 | 0.38 | 94 | 1017.5 |
| 20260510164401 | 4 | 279 | 0.0 | 8.0 | 0.03 | 0.36 | 0.36 | 94 | 1017.6 |
| 20260510161359 | 4 | 250 | 3.2 | 9.7 | 0.05 | 0.33 | 0.33 | 94 | 1017.8 |
| 20260510155851 | 4 | 285 | 1.6 | 9.7 | 0.05 | 0.33 | 0.33 | 94 | 1017.8 |
| 20260510152855 | 4 | 254 | 0.0 | 4.8 | 0.05 | 0.30 | 0.30 | 94 | 1017.9 |
| 20260510145903 | 4 | 255 | 0.0 | 6.4 | 0.05 | 0.28 | 0.28 | 95 | 1017.9 |
| 20260510144402 | 4 | 323 | 0.0 | 3.2 | 0.08 | 0.46 | 0.28 | 95 | 1017.9 |
| 20260510142851 | 5 | 280 | 0.0 | 6.4 | 0.05 | 0.43 | 0.25 | 95 | 1017.9 |
| 20260510135900 | 5 | 235 | 0.0 | 3.2 | 0.03 | 0.41 | 0.23 | 94 | 1018.1 |
| 20260510132905 | 5 | 309 | 0.0 | 8.0 | 0.03 | 0.38 | 0.20 | 95 | 1018.5 |
| 20260510131352 | 5 | 245 | 1.6 | 8.0 | 0.05 | 0.38 | 0.20 | 95 | 1018.5 |
| 20260510124359 | 5 | 217 | 0.0 | 1.6 | 0.10 | 0.36 | 0.18 | 94 | 1018.7 |
| 20260510122854 | 5 | 205 | 0.0 | 1.6 | 0.15 | 0.36 | 0.18 | 94 | 1018.7 |
| 20260510115858 | 5 | 240 | 0.0 | 3.2 | 0.10 | 0.30 | 0.13 | 94 | 1018.8 |
| 20260510112859 | 5 | 240 | 0.0 | 8.0 | 0.03 | 0.23 | 0.05 | 93 | 1018.7 |
| 20260510111357 | 5 | 307 | 3.2 | 9.7 | 0.00 | 0.20 | 0.03 | 93 | 1018.7 |
| 20260510104359 | 5 | 327 | 1.6 | 8.0 | 0.00 | 0.20 | 0.03 | 93 | 1018.7 |
| 20260510101400 | 5 | 355 | 1.6 | 9.7 | 0.00 | 0.20 | 0.03 | 93 | 1018.9 |
| 20260510095852 | 6 | 103 | 1.6 | 8.0 | 0.03 | 0.20 | 0.03 | 93 | 1018.8 |
| 20260510092859 | 6 | 317 | 1.6 | 8.0 | 0.03 | 0.20 | 0.03 | 93 | 1019.0 |
| 20260510091352 | 6 | 355 | 1.6 | 4.8 | 0.03 | 0.20 | 0.03 | 93 | 1019.1 |
| 20260510085844 | 6 | 274 | 0.0 | 4.8 | 0.00 | 0.18 | 0.00 | 93 | 1019.1 |
| 20260510082903 | 6 | 334 | 0.0 | 6.4 | 0.00 | 0.18 | 0.00 | 93 | 1019.1 |
| 20260510081354 | 6 | 40 | 0.0 | 8.0 | 0.00 | 0.18 | 0.00 | 93 | 1019.1 |
| 20260510074403 | 6 | 304 | 0.0 | 9.7 | 0.00 | 0.18 | 0.00 | 93 | 1019.3 |
| 20260510072858 | 6 | 105 | 0.0 | 8.0 | 0.00 | 0.18 | 0.00 | 93 | 1019.3 |
| 20260510071353 | 6 | 271 | 0.0 | 6.4 | 0.00 | 0.18 | 0.00 | 93 | 1019.4 |
| 20260510064403 | 6 | 202 | 0.0 | 3.2 | 0.00 | 0.18 | 0.00 | 94 | 1019.7 |
| 20260510061359 | 6 | 200 | 0.0 | 6.4 | 0.00 | 0.18 | 0.00 | 93 | 1019.7 |
| 20260510055854 | 6 | 72 | 0.0 | 1.6 | 0.00 | 0.18 | 0.00 | 94 | 1019.8 |
| 20260510052904 | 1 | 72 | 0.0 | 1.6 | 0.00 | 0.20 | 0.00 | 93 | 1020.5 |
| 20260510051358 | 0 | 72 | 0.0 | 0.0 | 0.00 | 0.20 | 0.00 | 93 | 1020.8 |
| 20260510044404 | 0 | 72 | 0.0 | 0.0 | 0.00 | 0.20 | 0.00 | 94 | 1020.9 |
| 20260510042900 | 0 | 72 | 0.0 | 0.0 | 0.00 | 0.20 | 0.00 | 93 | 1021.0 |
| 20260510041352 | 0 | 72 | 0.0 | 0.0 | 0.00 | 0.20 | 0.00 | 93 | 1021.1 |
| 20260510034402 | 0 | 72 | 0.0 | 0.0 | 0.00 | 0.20 | 0.00 | 93 | 1021.5 |
| 20260510032900 | 0 | 72 | 0.0 | 0.0 | 0.00 | 0.20 | 0.00 | 93 | 1021.5 |
| 20260510031351 | 0 | 72 | 0.0 | 0.0 | 0.00 | 0.20 | 0.00 | 93 | 1021.6 |
| 20260510024401 | -1 | 72 | 0.0 | 0.0 | 0.00 | 0.20 | 0.00 | 94 | 1022.0 |
| 20260510022857 | -1 | 72 | 0.0 | 0.0 | 0.00 | 0.20 | 0.00 | 94 | 1022.2 |
| 20260510015906 | 0 | 72 | 0.0 | 0.0 | 0.00 | 0.20 | 0.00 | 94 | 1022.6 |
| 20260510014358 | 0 | 72 | 0.0 | 0.0 | 0.00 | 0.20 | 0.00 | 94 | 1022.5 |
| 20260510012855 | 0 | 72 | 0.0 | 0.0 | 0.00 | 0.20 | 0.00 | 94 | 1022.8 |
| 20260510005901 | 0 | 72 | 0.0 | 0.0 | 0.00 | 0.20 | 0.00 | 94 | 1023.0 |
| 20260510004354 | 0 | 72 | 0.0 | 0.0 | 0.00 | 0.20 | 0.00 | 94 | 1023.1 |
| 20260509235859 | 0 | 72 | 0.0 | 0.0 | 0.00 | 0.20 | 0.00 | 94 | 1023.5 |
| 20260509232902 | -1 | 72 | 0.0 | 0.0 | 0.00 | 0.20 | 0.00 | 94 | 1023.8 |
| 20260509231356 | 0 | 72 | 0.0 | 0.0 | 0.00 | 0.20 | 0.00 | 94 | 1023.8 |
| 20260509225847 | 0 | 72 | 0.0 | 0.0 | 0.00 | 0.20 | 0.00 | 94 | 1024.2 |
| 20260509223508 | 0 | 72 | 0.0 | 1.6 | 0.00 | 0.20 | 0.00 | 94 | 1024.2 |
| 20260509220035 | -1 | 72 | 0.0 | 0.0 | 0.00 | 0.20 | 0.00 | 94 | 1024.1 |
| 20260509212840 | 0 | 72 | 0.0 | 0.0 | 0.00 | 0.20 | 0.20 | 94 | 1024.0 |
| 20260509210018 | 0 | 72 | 0.0 | 0.0 | 0.00 | 0.20 | 0.20 | 94 | 1024.2 |
| 20260509202846 | 0 | 72 | 0.0 | 0.0 | 0.00 | 0.20 | 0.20 | 94 | 1024.1 |
| 20260509201336 | 0 | 72 | 0.0 | 0.0 | 0.00 | 0.20 | 0.20 | 93 | 1024.2 |
| 20260509194342 | 0 | 72 | 0.0 | 0.0 | 0.00 | 0.20 | 0.20 | 92 | 1023.8 |
| 20260509192838 | 0 | 72 | 0.0 | 0.0 | 0.00 | 0.20 | 0.20 | 92 | 1023.5 |
| 20260509185842 | 2 | 72 | 0.0 | 0.0 | 0.00 | 0.20 | 0.20 | 91 | 1023.3 |
| 20260509184336 | 2 | 72 | 0.0 | 0.0 | 0.00 | 0.20 | 0.20 | 90 | 1023.1 |
| 20260509181346 | 5 | 72 | 0.0 | 0.0 | 0.00 | 0.20 | 0.20 | 91 | 1022.7 |